10chiemaru — JD2376 — position and weather

sailwx.info

Track history (hours):
 
Tides and Currents Weather Stations Pressure Air Temp Water Temp Dewpoint Dewpoint Depression Visibility Wind Speed Wind Dir Waves Ship Positions

10chiemaru

Last reported at 2014-Oct-20 06:33 UTC. Time now 2014-Oct-21 00:44 UTC.
Position N 35°18' E 139°44'.

Length 72 m; draft 4.9 m.

Type: Ship. MMSI: 431000147.

Date/timePositionNaut miles runAvg speedWind from/ knotsBaromVisibWave heightAir tempDewpointWater temp
2014-Oct-20 06:33N 35°18' E 139°44'1010.4
2014-Oct-20 05:33N 35°28' E 139°47'3 3.2
2014-Oct-20 04:32N 35°31' E 139°46'0 0.0
2014-Oct-20 03:33N 35°31' E 139°46'0 0.0
2014-Oct-20 02:30N 35°31' E 139°46'0 0.1
2014-Oct-20 01:33N 35°31' E 139°46'0 0.0
2014-Oct-20 00:33N 35°31' E 139°46'1 0.0
2014-Oct-19 06:33N 35°30' E 139°46'3 3.0
2014-Oct-19 05:33N 35°30' E 139°50'0 0.1
2014-Oct-19 04:34N 35°30' E 139°50'1 0.8
2014-Oct-19 03:33N 35°30' E 139°49'8 7.5
2014-Oct-19 02:34N 35°28' E 139°40'0 0.0
2014-Oct-19 01:33N 35°28' E 139°40'0 0.0
2014-Oct-19 00:33N 35°28' E 139°40'0 0.0
2014-Oct-18 23:33N 35°28' E 139°40'4 3.9
2014-Oct-18 22:33N 35°25' E 139°43'1 1.3
2014-Oct-18 21:33N 35°24' E 139°44'0 0.0
2014-Oct-18 20:33N 35°24' E 139°44'0 0.0
2014-Oct-18 19:33N 35°24' E 139°44'0 0.0
2014-Oct-18 18:33N 35°24' E 139°44'0 0.0
2014-Oct-18 17:33N 35°24' E 139°44'5 5.0
2014-Oct-18 16:33N 35°19' E 139°44'  
2014-Oct-16 06:33N 35°18' E 139°44'6 6.0
2014-Oct-16 05:33N 35°24' E 139°45'4 4.1
2014-Oct-16 04:33N 35°28' E 139°47'4 3.2
2014-Oct-16 03:22N 35°31' E 139°46'0 0.0
2014-Oct-16 00:33N 35°31' E 139°46'3 0.5
2014-Oct-15 18:22N 35°29' E 139°48'0 0.0
2014-Oct-15 17:31N 35°29' E 139°48'0 0.0
2014-Oct-15 16:31N 35°29' E 139°48'0 0.0
2014-Oct-15 15:31N 35°29' E 139°48'0 0.0
2014-Oct-15 14:28N 35°29' E 139°48'0 0.0
2014-Oct-15 13:31N 35°29' E 139°48'0 0.0
2014-Oct-15 12:33N 35°29' E 139°48'0 0.0
2014-Oct-15 11:33N 35°29' E 139°48'0 0.1
2014-Oct-15 10:33N 35°29' E 139°48'1010.3
2014-Oct-15 09:33N 35°19' E 139°44'  
Track history (hours):
 
Tides and Currents Weather Stations Pressure Air Temp Water Temp Dewpoint Dewpoint Depression Visibility Wind Speed Wind Dir Waves Ship Positions

10chiemaru

Last reported at 2014-Oct-20 06:33 UTC. Time now 2014-Oct-21 00:44 UTC.
Position N 35°18' E 139°44'.

Length 72 m; draft 4.9 m.

Type: Ship. MMSI: 431000147.

Date/timePositionNaut miles runAvg speedWind from/ knotsBaromVisibWave heightAir tempDewpointWater temp
2014-Oct-20 06:33N 35°18' E 139°44'1010.4
2014-Oct-20 05:33N 35°28' E 139°47'3 3.2
2014-Oct-20 04:32N 35°31' E 139°46'0 0.0
2014-Oct-20 03:33N 35°31' E 139°46'0 0.0
2014-Oct-20 02:30N 35°31' E 139°46'0 0.1
2014-Oct-20 01:33N 35°31' E 139°46'0 0.0
2014-Oct-20 00:33N 35°31' E 139°46'1 0.0
2014-Oct-19 06:33N 35°30' E 139°46'3 3.0
2014-Oct-19 05:33N 35°30' E 139°50'0 0.1
2014-Oct-19 04:34N 35°30' E 139°50'1 0.8
2014-Oct-19 03:33N 35°30' E 139°49'8 7.5
2014-Oct-19 02:34N 35°28' E 139°40'0 0.0
2014-Oct-19 01:33N 35°28' E 139°40'0 0.0
2014-Oct-19 00:33N 35°28' E 139°40'0 0.0
2014-Oct-18 23:33N 35°28' E 139°40'4 3.9
2014-Oct-18 22:33N 35°25' E 139°43'1 1.3
2014-Oct-18 21:33N 35°24' E 139°44'0 0.0
2014-Oct-18 20:33N 35°24' E 139°44'0 0.0
2014-Oct-18 19:33N 35°24' E 139°44'0 0.0
2014-Oct-18 18:33N 35°24' E 139°44'0 0.0
2014-Oct-18 17:33N 35°24' E 139°44'5 5.0
2014-Oct-18 16:33N 35°19' E 139°44'  
2014-Oct-16 06:33N 35°18' E 139°44'6 6.0
2014-Oct-16 05:33N 35°24' E 139°45'4 4.1
2014-Oct-16 04:33N 35°28' E 139°47'4 3.2
2014-Oct-16 03:22N 35°31' E 139°46'0 0.0
2014-Oct-16 00:33N 35°31' E 139°46'3 0.5
2014-Oct-15 18:22N 35°29' E 139°48'0 0.0
2014-Oct-15 17:31N 35°29' E 139°48'0 0.0
2014-Oct-15 16:31N 35°29' E 139°48'0 0.0
2014-Oct-15 15:31N 35°29' E 139°48'0 0.0
2014-Oct-15 14:28N 35°29' E 139°48'0 0.0
2014-Oct-15 13:31N 35°29' E 139°48'0 0.0
2014-Oct-15 12:33N 35°29' E 139°48'0 0.0
2014-Oct-15 11:33N 35°29' E 139°48'0 0.1
2014-Oct-15 10:33N 35°29' E 139°48'1010.3
2014-Oct-15 09:33N 35°19' E 139°44'  

Dump ship's entire track history